TimeCDT,TemperatureF,Dew PointF,Humidity,Sea Level PressureIn,VisibilityMPH,Wind Direction,Wind SpeedMPH,Gust SpeedMPH,PrecipitationIn,Events,Conditions,WindDirDegrees,DateUTC
12:53 AM,21.9,19.9,92,30.38,10.0,Calm,Calm,-,N/A,,Clear,0,2012-10-28 05:53:00
1:53 AM,21.0,17.1,85,30.39,10.0,Calm,Calm,-,N/A,,Clear,0,2012-10-28 06:53:00
2:53 AM,21.9,19.0,89,30.38,10.0,Calm,Calm,-,N/A,,Partly Cloudy,0,2012-10-28 07:53:00
3:53 AM,19.9,17.1,89,30.38,10.0,Calm,Calm,-,N/A,,Partly Cloudy,0,2012-10-28 08:53:00
4:53 AM,19.9,16.0,85,30.38,10.0,Calm,Calm,-,N/A,,Mostly Cloudy,0,2012-10-28 09:53:00
5:53 AM,19.9,16.0,85,30.38,10.0,Calm,Calm,-,N/A,,Clear,0,2012-10-28 10:53:00
6:53 AM,19.9,16.0,85,30.39,10.0,Calm,Calm,-,N/A,,Mostly Cloudy,0,2012-10-28 11:53:00
7:53 AM,19.0,15.1,85,30.40,10.0,Calm,Calm,-,N/A,,Clear,0,2012-10-28 12:53:00
8:53 AM,25.0,21.9,88,30.41,10.0,Calm,Calm,-,N/A,,Mostly Cloudy,0,2012-10-28 13:53:00
9:53 AM,36.0,27.0,70,30.40,10.0,South,5.8,-,N/A,,Overcast,180,2012-10-28 14:53:00
10:53 AM,39.0,21.0,49,30.39,10.0,SSW,6.9,-,N/A,,Mostly Cloudy,200,2012-10-28 15:53:00
11:53 AM,39.9,19.9,45,30.38,10.0,SSW,6.9,17.3,N/A,,Mostly Cloudy,200,2012-10-28 16:53:00
12:53 PM,42.1,19.9,41,30.37,10.0,SW,8.1,-,N/A,,Mostly Cloudy,230,2012-10-28 17:53:00
1:53 PM,43.0,19.9,40,30.36,10.0,SSW,9.2,-,N/A,,Partly Cloudy,200,2012-10-28 18:53:00
2:53 PM,44.1,21.0,40,30.35,10.0,Variable,6.9,-,N/A,,Overcast,0,2012-10-28 19:53:00
3:53 PM,42.1,19.0,40,30.35,10.0,SSW,4.6,-,N/A,,Overcast,210,2012-10-28 20:53:00
4:53 PM,42.1,18.0,38,30.36,10.0,Variable,3.5,-,N/A,,Overcast,0,2012-10-28 21:53:00
5:53 PM,39.0,21.0,49,30.36,10.0,Calm,Calm,-,N/A,,Overcast,0,2012-10-28 22:53:00
6:53 PM,36.0,21.9,57,30.37,10.0,Calm,Calm,-,N/A,,Overcast,0,2012-10-28 23:53:00
7:53 PM,35.1,23.0,61,30.37,10.0,Calm,Calm,-,N/A,,Overcast,0,2012-10-29 00:53:00
8:53 PM,30.0,21.0,69,30.38,10.0,Calm,Calm,-,N/A,,Mostly Cloudy,0,2012-10-29 01:53:00
9:53 PM,27.0,21.0,78,30.37,10.0,Calm,Calm,-,N/A,,Clear,0,2012-10-29 02:53:00
10:53 PM,26.1,19.9,78,30.38,10.0,Calm,Calm,-,N/A,,Clear,0,2012-10-29 03:53:00
11:53 PM,24.1,19.0,81,30.38,10.0,Calm,Calm,-,N/A,,Clear,0,2012-10-29 04:53:00